Tracking 35331 objects as of 15-Sep-2026
HD Live streaming from Space Station
objects crossing your sky now

STARLINK-5467

Track STARLINK-5467 now!
10-day predictions
STARLINK-5467 is classified as:


NORAD ID: 55660
Int'l Code: 2023-021AJ
Launch date: February 17, 2023
Source: United States (US)
Launch site: AIR FORCE WESTERN TEST RANGE (AFWTR)
Your satellite tracking list
Your tracking list is empty




NASA's NSSDC Master Catalog

Two Line Element Set (TLE):
1 55660U 23021AJ  26257.85386389 -.00005706  00000-0 -47039-3 0  9998
2 55660  70.0002  47.3462 0002696 256.4038 103.6821 14.98363583197626
Source of the keplerian elements: AFSPC